This is the latest recevied weather packets stored in our database for station/object KJ6APE. If no packets are shown the sender has not sent any weather packets the latest 1 day(s).
| Time | Temp. | Humidity | Pressure | Rain* | Wind** | Luminosity | Snow |
|---|---|---|---|---|---|---|---|
| 1778001530 | 14.44° C | 81% | 1015.6 hPa | 0 mm | 0 m/s | 196 W/m² | - |
| 1778001228 | 13.89° C | 82% | 1015.7 hPa | 0 mm | 0 m/s | 171 W/m² | - |
| 1778000924 | 13.89° C | 82% | 1015.8 hPa | 0 mm | 0 m/s | 135 W/m² | - |
| 1778000621 | 13.89° C | 83% | 1015.8 hPa | 0 mm | 0 m/s | 124 W/m² | - |
| 1778000316 | 13.89° C | 81% | 1015.7 hPa | 0 mm | 0 m/s | 118 W/m² | - |
| 1778000012 | 13.89° C | 83% | 1015.8 hPa | 0 mm | 0 m/s | 96 W/m² | - |
| 1777999708 | 13.89° C | 82% | 1015.8 hPa | 0 mm | 0.45 m/s, 60° | 108 W/m² | - |
| 1777999405 | 13.89° C | 83% | 1015.9 hPa | 0 mm | 0 m/s | 120 W/m² | - |
| 1777999103 | 13.89° C | 84% | 1015.8 hPa | 0 mm | 0 m/s | 122 W/m² | - |
| 1777998802 | 13.89° C | 84% | 1015.7 hPa | 0 mm | 0 m/s | 103 W/m² | - |
| 1777998500 | 13.89° C | 83% | 1015.6 hPa | 0 mm | 0.89 m/s, 117° | 129 W/m² | - |
| 1777998196 | 13.89° C | 85% | 1015.6 hPa | 0 mm | 0.89 m/s, 118° | 134 W/m² | - |
| 1777997893 | 13.89° C | 86% | 1015.7 hPa | 0 mm | 0.89 m/s, 15° | 109 W/m² | - |
| 1777997590 | 13.89° C | 86% | 1015.6 hPa | 0 mm | 0 m/s | 79 W/m² | - |
| 1777997288 | 13.89° C | 86% | 1015.7 hPa | 0 mm | 0 m/s | 75 W/m² | - |
| 1777996985 | 13.33° C | 86% | 1015.8 hPa | 0 mm | 0 m/s | 82 W/m² | - |
| 1777996682 | 13.33° C | 86% | 1015.7 hPa | 0 mm | 0 m/s | 78 W/m² | - |
| 1777996377 | 13.33° C | 86% | 1015.5 hPa | 0 mm | 0 m/s | 61 W/m² | - |
| 1777996073 | 13.33° C | 87% | 1015.6 hPa | 0 mm | 0 m/s | 80 W/m² | - |
| 1777995771 | 13.33° C | 87% | 1015.6 hPa | 0 mm | 0 m/s | 81 W/m² | - |
| 1777995467 | 13.33° C | 87% | 1015.6 hPa | 0 mm | 0.45 m/s, 117° | 71 W/m² | - |
| 1777995164 | 12.78° C | 87% | 1015.5 hPa | 0 mm | 0 m/s | 66 W/m² | - |
| 1777994862 | 12.78° C | 87% | 1015.5 hPa | 0 mm | 0 m/s | 51 W/m² | - |
| 1777994558 | 12.78° C | 87% | 1015.4 hPa | 0 mm | 0 m/s | 50 W/m² | - |
| 1777994257 | 12.78° C | 87% | 1015.4 hPa | 0 mm | 0.45 m/s, 99° | 57 W/m² | - |
* Rain latest hour (hover to see other rain measurements)
** Current wind speed in m/s (hover to see current wind gust speed)